Wind_Speed
53 50 47 45 46 46 45 44 44 43 43 41 41 42 42 43 44 45 44 42 39 36 36 39 43 48 53 56 59 60 60 57 57 54 47 41 39 38 39 41 44 48 51 53
58 57 55 53 50 50 51 51 50 48 46 45 46 45 43 43 43 41 40 36 33 33 36 41 46 51 55 58 59 58 57 55 54 48 42 39 38 39 42 46 49 52 54 54
59 60 61 61 55 54 54 55 56 55 52 49 48 47 46 45 44 44 39 35 33 34 38 44 49 53 55 56 56 56 54 53 48 42 39 38 39 42 46 49 52 53 53 53
55 57 62 60 58 59 58 58 58 59 57 55 52 49 47 46 45 41 38 34 35 39 42 45 49 51 52 53 53 52 51 47 42 38 37 39 42 46 49 51 52 52 53 52
49 52 56 55 55 55 56 59 59 60 61 60 58 54 51 50 47 40 37 35 37 39 42 45 47 48 49 50 50 48 46 41 37 36 38 41 45 47 49 51 51 51 51 50
44 48 51 50 50 49 49 51 52 55 57 58 58 56 53 49 45 41 36 34 36 39 41 43 45 45 46 46 46 44 40 36 35 37 40 43 45 47 48 49 49 49 48 47
40 44 46 46 45 43 43 43 42 42 44 45 47 47 45 42 37 35 34 33 35 38 40 41 41 41 42 43 41 37 33 33 35 38 41 43 44 45 46 47 47 47 46 44
37 41 43 42 42 41 38 36 36 35 36 36 35 36 34 33 31 29 29 30 33 35 36 37 38 39 39 37 34 31 31 33 36 39 40 42 43 43 44 44 45 45 43 41
30 33 34 35 36 36 35 33 31 31 32 31 28 27 26 27 24 23 26 29 31 32 33 33 35 35 33 30 28 29 31 34 37 38 39 40 41 42 42 43 43 43 41 38
21 21 21 21 23 24 26 25 22 21 22 20 20 21 22 21 20 22 25 26 28 29 29 31 31 29 26 25 26 29 32 35 36 37 38 38 39 40 41 42 41 40 37 34
11 10 8 9 11 13 14 14 15 14 14 14 16 17 17 18 19 21 23 24 25 26 27 27 25 22 21 23 26 30 32 34 36 36 36 37 37 38 39 40 39 37 34 31
6 6 5 4 6 7 8 9 9 10 12 13 14 15 15 16 18 20 21 21 22 23 23 20 18 17 20 23 27 30 32 34 35 35 36 36 36 37 38 38 37 35 33 31
7 7 7 6 6 6 6 7 8 10 11 12 13 13 14 16 18 18 18 18 18 18 16 14 14 16 19 23 27 30 32 33 35 35 36 36 35 36 37 37 37 35 33 30
8 9 7 7 7 7 7 7 8 9 10 11 12 13 14 15 15 15 15 15 14 12 11 10 12 16 20 24 28 30 32 33 34 35 35 34 34 35 36 37 36 35 32 29
8 8 9 9 8 8 8 8 9 9 9 10 11 12 13 13 12 12 12 11 9 7 7 9 12 17 21 25 28 30 32 33 33 34 33 33 33 34 35 36 35 34 31 27
8 8 9 8 8 7 7 8 9 9 9 10 11 11 11 10 10 9 7 5 4 4 6 9 13 18 23 25 28 30 32 33 33 33 33 33 33 33 33 34 33 32 29 25
8 8 8 7 7 7 8 8 9 9 9 9 9 9 8 7 6 5 3 2 2 2 5 10 15 20 23 25 28 30 32 32 32 32 32 32 31 31 32 32 32 31 29 26
10 9 9 7 7 8 8 9 9 9 9 8 7 7 6 4 3 3 4 4 2 2 7 12 17 21 23 26 28 30 31 31 31 32 32 31 31 31 30 30 30 30 29 26
12 11 10 9 9 9 9 8 9 9 8 7 6 5 4 4 5 7 7 5 2 4 8 13 18 21 24 26 28 29 30 31 32 32 32 32 31 30 29 29 28 28 28 26
12 12 11 11 11 11 10 10 10 8 7 6 5 4 5 7 9 10 9 6 4 6 10 15 18 21 24 26 28 30 31 32 33 33 33 32 30 29 28 27 28 27 27 25
13 12 11 12 13 13 12 11 9 7 6 5 5 6 8 10 12 12 10 6 5 8 12 16 19 22 24 27 29 31 33 34 34 34 33 32 30 28 27 26 27 27 27 26
13 13 13 14 14 14 12 10 8 6 5 5 6 8 12 14 15 13 10 7 7 10 13 17 19 22 25 28 30 33 35 36 36 35 33 31 29 27 26 26 26 27 27 27
16 16 16 16 15 14 12 10 7 6 6 6 8 11 15 17 17 14 11 8 8 11 14 17 20 23 26 29 32 34 37 38 38 37 34 31 29 27 26 26 26 27 27 27
18 18 18 17 16 14 12 9 7 6 6 7 10 15 19 19 18 15 12 9 10 12 15 17 20 23 26 30 33 36 38 39 40 39 36 33 31 29 27 26 26 26 27 28
20 20 20 19 17 14 12 9 8 7 7 9 14 18 21 20 19 16 12 10 10 12 14 17 20 23 26 30 34 36 38 40 41 40 39 36 33 31 30 28 27 26 27 27
21 21 20 19 17 15 12 10 9 9 9 12 16 20 22 21 19 16 13 11 10 12 14 16 19 22 26 29 33 36 38 39 40 41 40 39 37 35 33 32 30 29 27 27
21 21 20 19 18 16 14 12 11 11 11 14 19 22 24 23 20 17 14 11 10 11 13 15 17 20 24 28 31 34 37 39 40 41 41 40 39 38 37 36 35 33 31 30
Wind_Direction
253 254 251 245 241 240 242 246 250 255 257 259 261 263 265 267 270 271 271 272 274 280 289 299 305 309 311 312 312 312 312 312 312 312 310 306 305 306 308 310 312 314 315 316
250 252 254 253 250 246 246 247 251 255 257 260 261 262 265 269 272 272 272 273 277 284 296 304 307 309 310 310 311 311 312 311 312 310 307 305 306 308 310 312 314 315 316 316
249 250 252 253 254 254 252 252 252 254 257 260 263 266 269 272 275 276 275 279 288 297 305 308 308 309 309 310 310 311 311 311 310 307 305 306 308 310 313 315 316 317 317 317
250 249 250 253 253 252 253 254 254 255 257 260 263 267 272 276 278 276 278 287 296 304 308 307 307 308 309 310 311 310 310 310 308 306 306 309 311 313 315 317 318 319 319 319
251 251 252 251 253 252 252 252 253 255 257 259 261 265 269 274 276 276 281 289 300 305 305 305 306 308 310 310 310 309 309 308 306 307 310 312 314 316 319 320 321 321 320 320
252 253 253 254 253 253 254 254 253 255 256 259 261 265 270 274 274 273 282 294 301 302 302 304 306 308 309 308 308 309 308 306 308 310 313 316 318 320 322 323 323 322 322 322
254 254 254 255 255 254 254 255 256 257 259 260 263 264 266 268 269 276 286 294 298 299 301 304 306 307 307 307 308 307 306 308 311 314 317 320 322 324 325 325 325 325 324 324
259 258 257 256 255 254 255 256 257 257 256 255 254 254 258 263 269 279 288 293 295 298 301 304 305 306 307 307 307 306 308 312 316 319 322 325 327 328 328 328 328 328 328 328
264 264 262 256 253 251 252 252 253 253 248 242 242 248 258 268 275 282 287 291 295 299 301 303 304 306 307 306 306 309 313 317 321 324 327 330 331 332 332 332 332 332 331 330
272 265 257 253 246 241 241 243 242 237 233 237 247 256 265 270 277 282 287 291 296 299 301 303 306 307 306 306 309 313 317 322 326 330 333 335 336 336 336 336 335 335 334 334
267 251 246 228 225 223 223 225 228 226 231 242 250 259 267 273 278 283 287 292 296 299 303 306 307 306 307 310 314 319 323 328 332 336 339 339 339 339 339 339 339 339 339 338
213 202 189 180 180 185 202 209 220 230 231 241 252 259 266 272 277 283 287 292 297 302 306 307 306 307 311 316 321 325 330 335 338 341 342 342 342 342 343 344 345 346 345 344
188 184 180 174 177 193 203 214 224 228 236 247 250 255 262 271 276 281 288 295 302 307 307 306 307 312 317 323 327 332 337 341 343 344 344 344 345 347 348 349 350 352 352 352
172 170 176 183 189 197 208 216 224 228 234 241 248 255 263 269 275 284 294 302 306 306 304 306 312 319 326 331 335 339 344 346 346 346 347 347 349 350 352 353 355 356 357 359
177 175 176 180 189 200 210 218 225 229 236 243 250 255 260 268 278 289 298 303 302 299 301 310 321 329 334 338 342 346 349 350 349 350 350 351 351 352 355 357 359 0 2 5
194 188 187 191 197 206 217 226 233 238 241 244 248 252 260 270 281 291 297 295 285 291 310 324 333 338 342 344 348 352 353 353 353 354 354 354 354 356 358 1 3 5 8 11
212 209 209 211 214 223 232 236 238 238 236 239 243 249 259 269 278 282 268 228 229 300 332 340 344 346 349 353 356 357 356 357 357 358 357 357 359 1 3 5 7 10 13 17
229 230 232 235 233 233 234 234 230 225 222 224 235 247 254 256 245 201 174 168 163 358 354 353 353 355 358 0 1 1 0 1 1 0 0 1 3 4 6 8 11 13 16 20
230 232 236 237 232 226 221 211 202 197 202 214 228 234 226 201 176 164 158 151 117 26 7 3 3 4 5 6 6 6 5 4 4 3 4 4 5 7 9 12 14 17 20 23
227 227 224 220 211 203 192 185 185 189 198 211 215 206 185 169 163 157 149 137 90 34 18 13 13 12 12 11 11 10 10 9 7 6 6 7 8 10 13 16 19 21 23 26
218 214 207 196 189 184 180 180 183 189 199 201 192 178 165 160 156 151 144 127 79 41 27 23 20 18 18 17 16 15 14 13 11 9 9 10 12 15 17 21 23 26 28 31
207 199 189 181 178 177 178 180 182 187 189 181 171 163 159 156 153 149 141 117 76 47 36 30 26 24 24 23 22 20 18 16 14 13 13 14 17 20 23 26 29 31 32 35
198 192 185 181 178 178 180 181 183 182 176 169 163 159 157 156 153 149 136 111 77 53 43 36 32 30 29 28 26 23 21 19 17 17 18 20 23 26 29 31 34 36 37 39
195 191 187 183 183 184 184 184 182 179 173 166 161 158 158 157 154 148 135 110 79 59 48 40 37 36 35 33 30 27 25 23 23 24 25 27 29 32 35 37 39 40 42 43
192 190 188 187 188 188 189 188 187 184 176 166 162 162 161 159 155 148 135 112 84 64 52 44 42 41 39 36 33 31 29 28 28 29 31 33 35 37 39 41 43 44 45 47
193 191 190 191 192 193 194 195 193 189 179 169 165 165 164 160 157 150 137 117 91 70 56 49 47 45 43 40 37 35 34 33 33 34 36 38 40 41 43 44 46 47 48 49
196 195 195 196 197 198 199 200 197 192 182 173 169 169 167 163 160 153 141 123 99 76 62 55 52 50 48 45 42 40 39 38 38 39 40 41 43 44 45 47 48 49 50 50
Height
5747 5751 5755 5758 5761 5762 5761 5761 5761 5762 5763 5765 5765 5764 5764 5764 5764 5762 5761 5759 5757 5754 5751 5748 5744 5740 5734 5728 5721 5714 5707 5699 5691 5684 5676 5669 5663 5657 5651 5644 5636 5629 5620 5611
5735 5739 5741 5744 5749 5752 5753 5753 5752 5753 5755 5757 5757 5756 5755 5755 5754 5752 5750 5748 5745 5743 5741 5738 5734 5729 5724 5717 5711 5704 5696 5689 5681 5674 5667 5661 5655 5649 5642 5634 5626 5617 5608 5598
5721 5726 5726 5729 5737 5741 5742 5743 5744 5745 5748 5748 5749 5748 5748 5747 5746 5744 5741 5739 5736 5733 5731 5729 5725 5719 5713 5707 5700 5694 5687 5679 5672 5665 5659 5653 5647 5640 5632 5624 5615 5605 5596 5586
5708 5712 5711 5719 5723 5726 5729 5731 5733 5735 5737 5739 5741 5740 5739 5739 5738 5736 5732 5730 5728 5726 5723 5719 5715 5709 5703 5697 5691 5685 5678 5671 5664 5658 5652 5646 5639 5631 5622 5613 5603 5594 5584 5574
5695 5696 5697 5703 5707 5711 5714 5717 5721 5723 5726 5728 5731 5731 5730 5730 5730 5727 5724 5722 5720 5717 5714 5710 5706 5700 5694 5689 5683 5677 5670 5664 5657 5652 5645 5638 5631 5622 5612 5602 5592 5583 5573 5564
5683 5683 5685 5691 5694 5698 5701 5703 5708 5711 5714 5717 5719 5721 5721 5721 5720 5718 5716 5714 5712 5709 5706 5702 5697 5692 5687 5682 5676 5670 5663 5657 5652 5646 5639 5631 5622 5612 5602 5592 5583 5573 5563 5554
5672 5671 5673 5678 5681 5686 5691 5694 5697 5700 5703 5706 5709 5711 5711 5710 5709 5708 5708 5706 5704 5702 5698 5694 5689 5685 5680 5675 5669 5663 5657 5652 5646 5639 5631 5622 5613 5603 5593 5584 5574 5564 5555 5545
5661 5661 5665 5668 5671 5676 5681 5685 5688 5690 5692 5695 5697 5698 5700 5700 5700 5700 5700 5699 5698 5695 5691 5687 5683 5678 5673 5668 5663 5658 5653 5647 5640 5633 5624 5614 5605 5595 5586 5576 5566 5556 5546 5537
5652 5654 5655 5658 5662 5666 5671 5676 5679 5681 5684 5686 5688 5690 5691 5693 5694 5694 5694 5693 5691 5687 5684 5681 5677 5672 5667 5662 5658 5653 5648 5641 5634 5625 5616 5607 5598 5588 5579 5569 5559 5549 5540 5531
5644 5644 5647 5650 5654 5659 5664 5669 5673 5675 5678 5680 5682 5684 5686 5688 5688 5688 5688 5686 5684 5681 5678 5675 5670 5666 5662 5658 5654 5649 5643 5636 5627 5619 5610 5601 5592 5582 5573 5563 5554 5544 5535 5526
5639 5640 5642 5645 5649 5654 5659 5664 5667 5670 5672 5675 5677 5680 5681 5682 5683 5683 5682 5680 5678 5676 5673 5669 5665 5661 5659 5655 5650 5645 5638 5630 5622 5613 5605 5596 5587 5578 5569 5559 5549 5540 5531 5522
5639 5640 5642 5645 5649 5653 5657 5660 5663 5666 5668 5671 5673 5675 5677 5678 5678 5678 5677 5676 5673 5670 5667 5664 5661 5659 5656 5652 5647 5640 5632 5624 5616 5608 5600 5592 5583 5574 5565 5556 5546 5536 5527 5518
5639 5640 5643 5646 5649 5652 5654 5657 5660 5663 5665 5668 5670 5672 5673 5674 5674 5674 5673 5670 5668 5665 5663 5661 5659 5657 5654 5649 5643 5636 5628 5620 5612 5604 5596 5588 5579 5571 5562 5553 5543 5534 5525 5516
5640 5642 5644 5646 5649 5651 5654 5656 5658 5661 5663 5665 5667 5668 5670 5670 5670 5669 5668 5665 5663 5662 5661 5660 5658 5655 5651 5646 5639 5632 5624 5616 5609 5601 5593 5585 5577 5569 5560 5551 5542 5532 5524 5516
5640 5643 5645 5646 5649 5651 5653 5655 5657 5659 5661 5662 5664 5665 5666 5666 5666 5665 5663 5662 5661 5661 5660 5659 5657 5654 5649 5643 5636 5629 5621 5614 5606 5599 5591 5583 5575 5567 5558 5550 5541 5532 5524 5517
5641 5642 5645 5647 5649 5651 5652 5654 5655 5657 5658 5659 5661 5662 5662 5663 5662 5661 5660 5660 5660 5661 5660 5659 5656 5652 5647 5641 5634 5627 5619 5612 5605 5597 5589 5582 5574 5566 5558 5550 5541 5533 5526 5518
5640 5642 5644 5646 5648 5649 5650 5652 5653 5654 5656 5657 5658 5659 5659 5659 5659 5659 5660 5660 5661 5661 5660 5658 5655 5651 5646 5639 5632 5625 5618 5611 5604 5596 5589 5581 5573 5566 5558 5550 5542 5535 5527 5520
5638 5640 5642 5643 5645 5646 5648 5649 5651 5652 5653 5654 5656 5657 5657 5658 5658 5659 5660 5661 5662 5661 5660 5658 5655 5650 5644 5638 5632 5625 5618 5611 5604 5597 5589 5581 5573 5566 5558 5551 5544 5537 5530 5523
5635 5637 5639 5640 5642 5644 5645 5647 5648 5650 5651 5653 5654 5655 5656 5657 5658 5659 5661 5662 5663 5662 5661 5658 5654 5650 5644 5639 5633 5626 5619 5612 5604 5597 5589 5581 5573 5566 5560 5553 5546 5540 5533 5527
5632 5634 5636 5638 5640 5642 5643 5645 5647 5649 5651 5652 5653 5655 5656 5657 5659 5660 5662 5663 5664 5663 5661 5659 5655 5650 5645 5639 5634 5627 5620 5613 5605 5597 5589 5581 5574 5568 5561 5555 5549 5543 5536 5531
5629 5632 5634 5636 5638 5640 5643 5645 5647 5648 5650 5651 5653 5654 5656 5658 5660 5662 5664 5665 5665 5664 5662 5659 5656 5652 5647 5641 5635 5629 5621 5614 5606 5598 5590 5582 5576 5569 5563 5558 5552 5546 5540 5535
5627 5630 5632 5635 5637 5640 5643 5645 5646 5648 5649 5651 5652 5654 5656 5658 5661 5664 5665 5667 5667 5666 5664 5661 5658 5654 5649 5644 5638 5631 5623 5616 5608 5600 5592 5584 5578 5572 5566 5561 5556 5550 5545 5540
5625 5628 5631 5634 5637 5640 5642 5644 5646 5647 5649 5650 5652 5654 5657 5660 5663 5665 5667 5669 5669 5668 5666 5663 5660 5656 5652 5646 5640 5634 5626 5619 5610 5602 5594 5587 5581 5575 5570 5565 5560 5555 5550 5545
5623 5626 5630 5633 5636 5639 5642 5643 5645 5647 5648 5650 5652 5655 5658 5661 5665 5667 5670 5671 5671 5670 5668 5666 5663 5660 5655 5650 5644 5638 5631 5623 5615 5606 5598 5591 5585 5579 5574 5569 5565 5561 5556 5552
5621 5625 5629 5632 5635 5638 5641 5643 5644 5646 5648 5650 5653 5656 5659 5663 5667 5670 5672 5673 5673 5672 5671 5669 5666 5663 5659 5654 5649 5643 5636 5628 5620 5612 5604 5597 5591 5585 5580 5575 5571 5566 5563 5559
5620 5623 5627 5631 5634 5637 5639 5642 5644 5646 5648 5651 5654 5657 5661 5665 5669 5672 5674 5675 5675 5675 5673 5672 5670 5667 5663 5659 5654 5648 5642 5635 5628 5620 5612 5605 5599 5593 5587 5582 5577 5573 5569 5565
5618 5622 5625 5629 5632 5635 5638 5640 5643 5645 5648 5651 5655 5658 5663 5667 5670 5673 5676 5677 5678 5677 5676 5675 5674 5671 5668 5664 5660 5655 5649 5642 5636 5629 5622 5615 5608 5602 5596 5591 5585 5581 5576 5572